When you browse on this site, cookies collect data to enhance your experience and personalize the content and advertising you see.
Visit our Privacy Policy to learn more. By continuing to use the site, you agree to this use of cookies and data.
  • In Czech Republic
  • List of Countries
  • For 7 days
  • Water Temperature
  • Weather Map
  • Weather Widgets
  • user-avatar
    Login

    Hourly Weather Skoghall

    Today, 25 May, Monday

    Time Temperature Precipitation Wind Pressure Humidity
    00:00 +8°C° 0 mm 1 mps 758 mmHg 97%
    01:00 +8°C° 0 mm 1 mps 759 mmHg 96%
    02:00 +7°C° 0 mm 1 mps 759 mmHg 96%
    03:00 +7°C° 0 mm 1 mps 760 mmHg 96%
    04:00 +6°C° 0 mm 2 mps 761 mmHg 96%
    05:00 +8°C° 0 mm 2 mps 762 mmHg 91%
    06:00 +10°C° 0 mm 2 mps 762 mmHg 86%
    07:00 +13°C° 0 mm 2 mps 763 mmHg 81%
    08:00 +15°C° 0 mm 2 mps 764 mmHg 73%
    09:00 +16°C° 0 mm 1 mps 764 mmHg 65%
    10:00 +19°C° 0 mm 1 mps 764 mmHg 56%
    11:00 +19°C° 0.3 mm 1 mps 764 mmHg 58%
    12:00 +20°C° 0.3 mm 1 mps 765 mmHg 59%
    13:00 +20°C° 0.3 mm 1 mps 765 mmHg 60%
    14:00 +20°C° 0.3 mm 1 mps 765 mmHg 60%
    15:00 +20°C° 0.3 mm 1 mps 765 mmHg 59%
    16:00 +21°C° 0.3 mm 1 mps 765 mmHg 59%
    17:00 +20°C° 0.1 mm 1 mps 766 mmHg 63%
    18:00 +19°C° 0.1 mm 1 mps 766 mmHg 68%
    19:00 +18°C° 0.1 mm 1 mps 767 mmHg 73%
    20:00 +15°C° 0 mm 1 mps 767 mmHg 77%
    21:00 +13°C° 0 mm 1 mps 768 mmHg 80%
    22:00 +11°C° 0 mm 1 mps 768 mmHg 84%
    23:00 +11°C° 0 mm 1 mps 768 mmHg 85%

    Tomorrow, 26 May, Tuesday

    Time Temperature Precipitation Wind Pressure Humidity
    00:00 +11°C° 0 mm 1 mps 768 mmHg 86%
    01:00 +10°C° 0 mm 1 mps 769 mmHg 86%
    02:00 +10°C° 0 mm 1 mps 769 mmHg 87%
    03:00 +10°C° 0 mm 1 mps 769 mmHg 87%
    04:00 +10°C° 0 mm 1 mps 769 mmHg 88%
    05:00 +11°C° 0 mm 1 mps 769 mmHg 82%
    06:00 +13°C° 0 mm 2 mps 769 mmHg 77%
    07:00 +15°C° 0 mm 2 mps 769 mmHg 71%
    08:00 +16°C° 0 mm 3 mps 769 mmHg 66%
    09:00 +17°C° 0 mm 3 mps 768 mmHg 61%
    10:00 +18°C° 0 mm 3 mps 768 mmHg 55%
    11:00 +19°C° 0 mm 4 mps 768 mmHg 53%
    12:00 +19°C° 0 mm 4 mps 768 mmHg 50%
    13:00 +20°C° 0 mm 4 mps 768 mmHg 47%
    14:00 +20°C° 0 mm 5 mps 767 mmHg 45%
    15:00 +20°C° 0 mm 5 mps 767 mmHg 44%
    16:00 +20°C° 0 mm 5 mps 766 mmHg 42%
    17:00 +19°C° 0 mm 5 mps 766 mmHg 47%
    18:00 +17°C° 0 mm 5 mps 766 mmHg 52%
    19:00 +15°C° 0 mm 5 mps 766 mmHg 58%
    20:00 +14°C° 0 mm 5 mps 766 mmHg 65%
    21:00 +13°C° 0 mm 5 mps 766 mmHg 73%
    22:00 +11°C° 0 mm 4 mps 766 mmHg 81%
    23:00 +11°C° 0 mm 4 mps 765 mmHg 83%

    Day after tomorrow, 27 May, Wednesday

    Time Temperature Precipitation Wind Pressure Humidity
    00:00 +10°C° 0 mm 4 mps 765 mmHg 86%
    01:00 +8°C° 0 mm 4 mps 764 mmHg 88%
    02:00 +10°C° 0 mm 4 mps 764 mmHg 89%
    03:00 +10°C° 0 mm 4 mps 764 mmHg 89%
    04:00 +10°C° 0 mm 4 mps 763 mmHg 90%
    05:00 +10°C° 0 mm 4 mps 763 mmHg 88%
    06:00 +11°C° 0 mm 3 mps 762 mmHg 86%
    07:00 +11°C° 0 mm 3 mps 762 mmHg 83%
    08:00 +13°C° 0 mm 3 mps 762 mmHg 74%
    09:00 +16°C° 0 mm 2 mps 762 mmHg 65%
    10:00 +17°C° 0 mm 2 mps 761 mmHg 56%
    11:00 +18°C° 0.1 mm 2 mps 761 mmHg 55%
    12:00 +18°C° 0.1 mm 3 mps 762 mmHg 53%
    13:00 +19°C° 0.1 mm 4 mps 762 mmHg 52%
    14:00 +18°C° 0.1 mm 4 mps 762 mmHg 52%
    15:00 +17°C° 0.1 mm 4 mps 762 mmHg 52%
    16:00 +17°C° 0.1 mm 4 mps 762 mmHg 52%
    17:00 +15°C° 0 mm 4 mps 762 mmHg 53%
    18:00 +16°C° 0 mm 3 mps 762 mmHg 54%
    19:00 +14°C° 0 mm 3 mps 763 mmHg 55%
    20:00 +13°C° 0 mm 3 mps 763 mmHg 61%
    21:00 +11°C° 0 mm 4 mps 764 mmHg 67%
    22:00 +9°C° 0 mm 5 mps 764 mmHg 73%
    23:00 +8°C° 0 mm 5 mps 765 mmHg 73%

    28 May, Thursday

    Time Temperature Precipitation Wind Pressure Humidity
    00:00 +7°C° 0 mm 4 mps 765 mmHg 72%
    01:00 +7°C° 0 mm 4 mps 765 mmHg 72%
    02:00 +6°C° 0 mm 4 mps 766 mmHg 71%
    03:00 +6°C° 0 mm 4 mps 766 mmHg 70%
    04:00 +5°C° 0 mm 4 mps 766 mmHg 70%
    05:00 +6°C° 0 mm 4 mps 766 mmHg 62%
    06:00 +8°C° 0 mm 4 mps 767 mmHg 54%
    07:00 +10°C° 0 mm 4 mps 767 mmHg 46%
    08:00 +12°C° 0 mm 4 mps 767 mmHg 42%
    09:00 +13°C° 0 mm 4 mps 766 mmHg 39%
    10:00 +14°C° 0 mm 4 mps 766 mmHg 35%
    11:00 +15°C° 0 mm 4 mps 766 mmHg 35%
    12:00 +15°C° 0 mm 4 mps 766 mmHg 34%
    13:00 +17°C° 0 mm 3 mps 765 mmHg 34%
    14:00 +17°C° 0 mm 3 mps 765 mmHg 35%
    15:00 +17°C° 0 mm 3 mps 765 mmHg 35%
    16:00 +17°C° 0 mm 3 mps 765 mmHg 36%
    17:00 +17°C° 0 mm 3 mps 765 mmHg 40%
    18:00 +16°C° 0 mm 3 mps 765 mmHg 44%
    19:00 +15°C° 0 mm 2 mps 765 mmHg 49%
    20:00 +13°C° 0 mm 3 mps 765 mmHg 54%
    21:00 +11°C° 0 mm 3 mps 765 mmHg 59%
    22:00 +9°C° 0 mm 3 mps 766 mmHg 65%
    23:00 +9°C° 0 mm 3 mps 766 mmHg 66%

    29 May, Friday

    Time Temperature Precipitation Wind Pressure Humidity
    00:00 +8°C° 0 mm 3 mps 766 mmHg 68%
    01:00 +8°C° 0 mm 3 mps 766 mmHg 69%
    02:00 +7°C° 0 mm 3 mps 766 mmHg 70%
    03:00 +7°C° 0 mm 3 mps 766 mmHg 72%
    04:00 +6°C° 0 mm 4 mps 767 mmHg 73%
    05:00 +8°C° 0 mm 3 mps 767 mmHg 67%
    06:00 +10°C° 0 mm 3 mps 767 mmHg 61%
    07:00 +11°C° 0 mm 3 mps 767 mmHg 55%
    08:00 +13°C° 0 mm 3 mps 766 mmHg 50%
    09:00 +14°C° 0 mm 3 mps 766 mmHg 45%
    10:00 +16°C° 0 mm 2 mps 766 mmHg 40%
    11:00 +17°C° 0 mm 2 mps 766 mmHg 37%
    12:00 +18°C° 0 mm 2 mps 765 mmHg 34%
    13:00 +19°C° 0 mm 2 mps 765 mmHg 32%
    14:00 +20°C° 0 mm 2 mps 764 mmHg 32%
    15:00 +20°C° 0 mm 2 mps 764 mmHg 31%
    16:00 +20°C° 0 mm 2 mps 764 mmHg 31%
    17:00 +19°C° 0 mm 2 mps 764 mmHg 36%
    18:00 +19°C° 0 mm 2 mps 764 mmHg 41%
    19:00 +18°C° 0 mm 2 mps 764 mmHg 45%
    20:00 +16°C° 0 mm 2 mps 764 mmHg 49%
    21:00 +14°C° 0 mm 2 mps 764 mmHg 53%
    22:00 +12°C° 0 mm 2 mps 764 mmHg 57%
    23:00 +12°C° 0 mm 2 mps 765 mmHg 60%

    30 May, Saturday

    Time Temperature Precipitation Wind Pressure Humidity
    00:00 +10°C° 0 mm 2 mps 765 mmHg 63%
    01:00 +9°C° 0 mm 2 mps 765 mmHg 66%
    02:00 +9°C° 0 mm 2 mps 765 mmHg 68%
    03:00 +9°C° 0 mm 2 mps 765 mmHg 70%
    04:00 +8°C° 0 mm 2 mps 765 mmHg 72%
    05:00 +10°C° 0 mm 2 mps 765 mmHg 66%
    06:00 +13°C° 0 mm 2 mps 765 mmHg 60%
    07:00 +15°C° 0 mm 2 mps 765 mmHg 55%
    08:00 +17°C° 0 mm 2 mps 765 mmHg 49%
    09:00 +18°C° 0 mm 2 mps 765 mmHg 43%
    10:00 +20°C° 0 mm 2 mps 764 mmHg 38%
    11:00 +20°C° 0 mm 2 mps 764 mmHg 37%
    12:00 +20°C° 0 mm 2 mps 764 mmHg 37%
    13:00 +21°C° 0 mm 2 mps 764 mmHg 37%
    14:00 +21°C° 0 mm 3 mps 764 mmHg 36%
    15:00 +21°C° 0 mm 3 mps 764 mmHg 36%
    16:00 +21°C° 0 mm 3 mps 763 mmHg 35%
    17:00 +20°C° 0 mm 3 mps 763 mmHg 38%
    18:00 +20°C° 0 mm 3 mps 763 mmHg 41%
    19:00 +19°C° 0 mm 3 mps 763 mmHg 44%
    20:00 +17°C° 0 mm 3 mps 764 mmHg 49%
    21:00 +14°C° 0 mm 3 mps 764 mmHg 54%
    22:00 +12°C° 0 mm 3 mps 764 mmHg 59%
    23:00 +11°C° 0 mm 3 mps 764 mmHg 60%
    Show more